Flag for Kazakhstan Weather past 2 weeks in Aqtobe, Kazakhstan

Now
70 °F

Clear.


Feels Like: 70 °F
Forecast: 61 / 82 °F
Wind: 6 mph from South

Location: Aktjubinsk

Current Time: Aug 29, 2015 at 11:58:41 PM

Latest Report: Aug 29, 2015 at 11:30 PM


Visibility: 10 mi

Pressure: 29.92 "Hg

Humidity: 35%

Dew point: 41 °F

Location of AqtobeLocation

Historic Weather in Aqtobe — Graph

°F

Aqtobe temperature yesterday

Maximum temperature yesterday: 84 °F (at 1:30 PM)
Minimum temperature yesterday: 48 °F (at 4:30 AM)
Average temperature yesterday: 68 °F

Past Weeks' High & Low Weather Summary

 TemperatureHumidityPressure
High95 °F (Aug 16, 2:00 PM)94% (Aug 18, 2:30 AM)30.12 "Hg (Aug 18, 2:30 AM)
Low36 °F (Aug 25, 4:00 AM)9% (Aug 16, 2:00 PM)29.47 "Hg (Aug 17, 4:30 PM)
Average66 °F44%29.92 "Hg
* Reported Aug 14 10:00 PM — Aug 29 10:30 PM, Aqtobe, Weather by CustomWeather, © 2015

Note: Actual official high and low records may vary slightly from our data, if they occured in-between our weather recording intervals... More about our weather records

Advertising

Aqtobe weather history for previous 24 hours

 ConditionsComfort  
Time TempWeatherWind HumidityBarometerVisibility
10:30 PM
Sat, Aug 29
73 °FClear.1 mph31%29.95 "Hg10 mi
10:00 PM73 °FClear.3 mph31%29.95 "Hg10 mi
9:30 PM75 °FClear.8 mph29%29.95 "Hg10 mi
9:00 PM75 °FClear.15 mph29%29.92 "Hg10 mi
8:30 PM79 °FClear.10 mph23%29.92 "Hg10 mi
8:00 PM81 °FSunny.8 mph17%29.92 "Hg10 mi
7:30 PM81 °FSunny.20 mph17%29.92 "Hg10 mi
7:00 PM82 °FSunny.17 mph16%29.92 "Hg10 mi
6:30 PM82 °FSunny.20 mph16%29.92 "Hg10 mi
6:00 PM82 °FSunny.20 mph15%29.92 "Hg10 mi
5:30 PM84 °FSunny.22 mph14%29.92 "Hg10 mi
4:30 PM84 °FSunny.22 mph14%29.92 "Hg10 mi
4:00 PM84 °FSunny.24 mph14%29.92 "Hg10 mi
3:00 PM86 °FSunny.22 mph13%29.95 "Hg10 mi
2:30 PM86 °FSunny.24 mph12%29.95 "Hg10 mi
2:00 PM84 °FSunny.17 mph13%29.95 "Hg10 mi
1:30 PM84 °FSunny.20 mph13%29.95 "Hg10 mi
1:00 PM84 °FSunny.20 mph13%29.98 "Hg10 mi
12:30 PM84 °FSunny.17 mph13%29.98 "Hg10 mi
12:00 PM82 °FSunny.15 mph15%29.98 "Hg10 mi
11:00 AM79 °FSunny.15 mph17%30.01 "Hg10 mi
10:30 AM77 °FSunny.15 mph18%30.01 "Hg10 mi
10:00 AM77 °FPassing clouds.8 mph19%30.01 "HgN/A
9:30 AM73 °FSunny.10 mph22%30.01 "Hg10 mi
9:00 AM72 °FSunny.13 mph23%30.04 "Hg10 mi
8:30 AM68 °FSunny.15 mph26%30.04 "Hg10 mi
8:00 AM64 °FSunny.15 mph28%30.04 "Hg10 mi
7:30 AM63 °FSunny.13 mph30%30.04 "Hg10 mi
7:00 AM61 °FSunny.10 mph29%30.04 "Hg10 mi
6:30 AM59 °FSunny.13 mph31%30.04 "Hg10 mi
6:00 AM61 °FClear.15 mph29%30.04 "Hg10 mi
5:30 AM61 °FClear.15 mph29%30.04 "Hg10 mi
5:00 AM61 °FClear.13 mph29%30.04 "Hg10 mi
4:30 AM61 °FClear.15 mph29%30.04 "Hg10 mi
4:00 AM61 °FClear.13 mph29%30.04 "Hg10 mi
3:30 AM61 °FClear.10 mph29%30.04 "Hg10 mi
3:00 AM63 °FClear.13 mph27%30.04 "Hg10 mi
2:30 AM61 °FPassing clouds.10 mph29%30.04 "HgN/A
2:00 AM63 °FClear.10 mph27%30.04 "Hg10 mi
1:30 AM61 °FClear.10 mph29%30.04 "Hg10 mi
1:00 AM63 °FClear.13 mph27%30.07 "Hg10 mi
12:30 AM63 °FClear.10 mph27%30.07 "Hg10 mi
12:00 AM63 °FClear.10 mph27%30.07 "Hg10 mi
11:30 PM
Fri, Aug 28
63 °FClear.8 mph27%30.07 "Hg10 mi
11:00 PM64 °FClear.8 mph26%30.07 "Hg10 mi
Weather by CustomWeather, © 2015

See weather overviewHow to use our weather pages